Hourly Data Report for October 29, 2015

All times are specified in Local Standard Time (LST). Add 1 hour to adjust for Daylight Saving Time where and when it is observed.

PENTICTON A
BRITISH COLUMBIA

49°27'45.000" N
119°36'08.000" W
344.40 m
1126146
71889
YYF

Download Data

Hourly Data (October 2015)
Hourly Data Report for October 29, 2015
Temp Definition
°C
Dew Point Temp Definition
°C
Rel Hum Definition
%
Wind Dir Definition
10's deg

Wind Spd Definition
km/h
Visibility Definition
km
Stn Press Definition
kPa
Hmdx Definition


Wind Chill Definition


Weather Definition


TIME
00:00 Legend Double Dagger 8.4 6.7 89 15 14 24.1 97.33     LegendNANA
01:00 Legend Double Dagger 8.0 6.8 92 12 4 24.1 97.30     Cloudy
02:00 Legend Double Dagger 8.4 6.9 90 15 21 24.1 97.31     LegendNANA
03:00 Legend Double Dagger 8.8 6.4 85 16 23 24.1 97.30     LegendNANA
04:00 Legend Double Dagger 8.6 6.9 89 15 19 24.1 97.32     Cloudy
05:00 Legend Double Dagger 8.8 6.8 87 17 19 12.9 97.32     LegendNANA
06:00 Legend Double Dagger 8.7 7.0 89 16 22 24.1 97.33     LegendNANA
07:00 Legend Double Dagger 8.7 6.8 88 16 19 24.1 97.30     Mostly Cloudy
08:00 Legend Double Dagger 9.0 7.1 88 18 30 24.1 97.32     LegendNANA
09:00 Legend Double Dagger 9.5 7.1 85 18 32 24.1 97.35     LegendNANA
10:00 Legend Double Dagger 10.7 7.2 79 17 31 24.1 97.36     Mostly Cloudy
11:00 Legend Double Dagger 11.4 6.8 73 17 29 24.1 97.35     LegendNANA
12:00 Legend Double Dagger 11.9 6.2 68 18 32 24.1 97.35     LegendNANA
13:00 Legend Double Dagger 12.8 6.7 66 18 31 24.1 97.29     Mostly Cloudy
14:00 Legend Double Dagger 12.6 6.5 66 18 31 24.1 97.24     LegendNANA
15:00 Legend Double Dagger 11.1 5.9 70 18 27 24.1 97.25     LegendNANA
16:00 Legend Double Dagger 11.2 5.8 69 18 32 24.1 97.22     Mostly Cloudy
17:00 Legend Double Dagger 10.4 5.8 73 18 25 24.1 97.19     LegendNANA
18:00 Legend Double Dagger 10.1 6.1 76 17 26 24.1 97.18     LegendNANA
19:00 Legend Double Dagger 10.1 6.3 77 18 28 24.1 97.14     Mostly Cloudy
20:00 Legend Double Dagger 10.0 6.4 78 18 22 24.1 97.11     LegendNANA
21:00 Legend Double Dagger 10.1 6.7 79 16 17 24.1 97.09     LegendNANA
22:00 Legend Double Dagger 10.3 6.5 77 19 26 24.1 97.02     Cloudy
23:00 Legend Double Dagger 10.2 6.6 78 17 19 24.1 96.95     LegendNANA

Notes on Data Quality.

Legend

  • E = Estimated
  • M = Missing
  • NA = Not Available
  • ‡ = Partner data that is not subject to review by the National Climate Archives
Date modified: